Wind_Speed
40 41 42 45 46 48 50 53 54 55 56 57 59 59 59 57 55 54 53 50 49 48 47 45 43 42 40 38 37 36 35 34 33 32 32 31 31 31 31 31 32 32 32
36 38 40 41 43 45 47 50 53 53 55 57 58 59 58 58 56 54 53 51 49 48 47 46 44 43 41 39 38 37 36 34 33 33 33 32 32 32 32 32 32 33 33
34 34 36 38 41 43 44 48 51 52 54 56 57 59 58 57 56 54 53 52 49 48 47 46 45 44 42 40 39 38 36 36 35 34 34 33 33 33 33 33 33 34 34
31 33 35 35 38 41 42 46 50 52 53 55 57 58 59 57 55 53 53 52 51 49 48 47 46 45 43 42 40 39 38 37 36 36 35 35 34 34 34 34 34 34 35
28 31 33 33 36 39 40 44 47 50 53 54 56 57 58 56 54 54 54 52 51 50 49 48 47 46 45 43 42 40 39 38 37 36 36 36 35 35 35 35 35 35 36
26 29 31 33 34 38 39 42 45 48 51 53 55 56 56 57 55 54 53 51 51 49 47 47 46 46 45 44 42 41 40 39 38 37 37 37 36 36 36 36 36 37 37
25 28 31 31 33 36 38 41 45 47 50 52 54 55 55 56 54 54 53 52 49 48 48 47 47 46 45 44 43 42 40 39 38 38 37 37 37 37 37 37 37 37 38
23 26 28 30 32 34 37 40 43 46 49 52 53 54 53 55 54 53 52 51 49 47 47 46 47 46 45 44 43 42 41 40 39 38 38 38 37 37 37 37 37 38 38
23 25 27 30 31 32 34 38 41 43 47 50 53 54 53 54 53 53 52 50 48 46 46 46 47 46 45 44 43 42 41 40 39 39 38 38 37 37 37 37 38 39 39
23 24 25 27 30 32 34 36 39 42 45 48 50 52 52 52 52 52 51 50 47 46 46 46 46 46 45 44 43 42 41 40 39 38 38 37 37 37 38 38 39 39 40
24 25 26 27 29 31 33 35 39 41 43 47 49 50 51 52 51 51 51 51 49 46 46 45 46 45 45 44 43 42 41 40 39 38 37 37 37 37 38 38 38 39 40
25 25 26 27 28 31 34 35 38 40 42 45 48 50 50 52 51 51 51 51 49 47 47 46 45 44 44 44 43 42 41 40 39 37 37 37 37 37 37 37 38 39 39
26 26 26 28 29 31 34 35 37 39 42 43 47 50 50 50 50 51 51 52 50 48 48 47 45 43 43 43 42 41 41 40 39 38 37 37 36 36 36 37 38 38 39
26 27 27 29 31 32 34 35 37 39 41 43 45 48 50 51 51 51 52 52 51 49 48 46 45 44 42 41 41 40 40 39 39 38 37 36 36 36 37 37 37 38 38
26 27 28 29 32 33 34 36 37 39 41 42 43 46 48 50 50 50 51 52 51 49 47 46 46 44 43 41 41 40 40 39 38 37 37 36 36 36 36 36 37 38 38
26 27 28 29 31 33 35 37 37 39 40 42 44 45 47 49 49 49 49 49 50 49 48 47 46 45 43 42 41 40 40 40 39 38 37 36 35 35 35 36 37 38 38
27 27 27 28 30 33 35 36 37 38 39 41 43 45 47 48 49 49 49 48 48 48 49 46 46 45 44 42 41 41 40 39 38 37 37 35 34 35 35 36 37 37 38
28 28 28 29 30 32 34 35 36 37 38 39 41 42 44 46 47 49 50 49 48 48 48 48 47 45 43 43 41 40 39 38 38 37 37 35 34 35 36 36 37 38 39
29 28 28 28 29 32 33 34 36 37 37 38 40 41 41 43 45 46 48 47 47 47 47 48 48 46 45 43 41 40 39 38 37 37 36 34 34 35 36 36 37 37 38
29 29 28 28 28 31 32 33 35 36 37 38 39 39 39 41 42 43 45 46 46 46 46 46 46 46 45 44 42 41 40 38 37 36 35 35 35 35 35 35 35 35 37
29 29 29 29 29 30 32 33 33 35 37 38 38 39 39 40 41 41 43 44 45 45 45 45 44 44 44 43 42 41 40 38 36 35 34 34 34 34 33 33 33 34 36
29 30 30 30 32 33 33 32 34 35 36 38 38 39 40 40 40 41 41 42 43 44 45 45 44 42 42 42 41 41 39 37 36 35 34 34 33 34 34 33 33 35 36
29 29 30 31 31 33 33 32 34 34 36 37 37 39 40 40 41 40 40 40 41 42 42 43 42 41 40 40 40 40 39 38 37 36 34 34 34 34 34 33 34 35 35
28 27 28 29 30 31 32 33 34 35 35 36 37 38 39 40 40 41 41 40 40 41 40 40 40 41 41 40 39 38 38 38 37 36 35 34 33 34 33 33 34 35 35
26 26 26 26 27 28 30 32 34 36 36 37 37 38 39 40 41 41 41 40 40 40 39 39 38 39 39 38 38 36 35 36 36 35 35 35 35 34 33 33 34 34 34
26 26 26 26 27 28 29 30 32 35 36 36 37 37 38 38 39 40 40 40 41 40 40 39 38 38 37 37 37 36 36 35 34 35 36 35 34 33 33 33 33 32 31
Wind_Direction
248 246 242 239 236 234 231 230 229 227 226 225 224 224 225 225 226 229 230 231 233 233 235 237 237 239 242 243 246 250 252 255 259 262 265 269 273 278 283 287 290 293 296
245 240 238 235 234 234 231 229 227 225 224 223 223 223 223 224 226 228 228 229 232 233 234 236 237 238 241 244 246 249 252 255 258 262 266 269 273 277 282 286 290 293 296
243 239 236 234 233 232 231 228 226 224 223 222 222 221 221 223 226 228 229 230 232 233 232 234 236 238 241 244 247 249 252 255 258 262 266 269 272 276 281 285 289 293 296
239 236 235 235 233 231 230 227 225 224 222 221 221 220 221 223 226 228 229 231 232 232 233 234 236 238 241 244 247 249 252 255 258 262 266 269 272 276 280 284 288 292 295
238 234 233 234 232 230 230 227 225 224 223 222 221 220 220 222 225 228 229 229 231 231 233 234 236 238 240 243 246 249 252 255 258 262 265 268 272 276 280 284 288 291 294
236 234 236 234 230 229 229 228 225 224 223 222 221 221 221 222 225 227 228 228 231 232 234 235 237 238 240 242 245 248 251 254 258 261 265 268 272 276 279 283 287 291 293
237 236 240 237 231 229 230 229 226 224 222 221 221 221 223 224 224 226 228 229 230 233 235 236 237 239 240 241 244 247 251 254 258 261 265 268 272 275 279 283 286 290 293
240 238 241 237 233 231 231 229 227 226 223 222 220 220 223 224 224 225 227 228 229 232 235 235 237 239 240 242 245 247 250 254 257 261 265 268 272 275 279 283 286 290 293
247 241 241 237 235 234 231 229 227 225 223 222 221 221 223 224 224 225 226 227 228 231 234 235 236 238 240 243 245 247 251 254 257 262 265 268 272 276 279 283 287 290 294
255 249 245 240 237 235 232 230 229 226 224 223 222 222 223 223 224 226 226 226 228 230 233 234 235 238 240 242 246 249 251 254 258 262 266 269 272 275 279 283 287 290 294
262 255 249 243 240 236 232 232 230 226 225 225 224 224 223 223 225 226 227 228 229 231 233 234 236 238 241 243 247 249 251 255 258 261 265 268 272 276 280 284 287 291 294
262 256 250 246 242 238 236 234 231 228 228 227 226 225 225 225 226 226 227 229 230 231 233 235 237 238 242 244 247 250 253 255 258 261 265 268 272 277 280 284 287 291 294
262 256 249 247 242 238 235 234 231 230 230 229 227 225 225 225 226 226 227 228 230 232 233 235 238 239 242 245 246 249 253 255 257 260 264 267 272 277 280 284 287 291 293
265 258 251 248 243 239 237 235 232 231 230 230 228 226 225 225 227 228 228 229 231 234 234 235 237 238 241 244 246 249 252 255 258 261 264 268 272 276 280 284 288 291 293
268 260 253 249 245 241 239 236 234 233 230 229 227 226 226 226 227 228 228 230 230 232 235 236 237 239 241 243 246 249 252 256 259 262 265 269 272 276 280 285 288 291 294
268 262 255 250 246 242 239 236 235 234 232 229 228 228 228 227 228 229 228 230 232 232 236 237 238 239 241 243 246 249 253 256 259 262 265 268 272 277 281 285 288 290 293
268 264 258 254 248 243 240 238 236 235 233 231 230 230 229 229 228 229 228 229 232 233 235 236 239 240 240 243 246 249 252 256 258 261 265 269 273 277 281 285 288 290 294
268 263 257 254 249 243 239 237 237 234 232 230 231 232 231 229 229 230 229 231 233 235 235 237 239 240 241 243 245 248 251 254 257 260 265 268 272 275 280 284 288 290 294
269 263 258 254 248 243 240 238 237 233 232 231 230 230 231 230 230 230 230 231 232 232 234 236 239 241 243 244 246 248 250 253 256 261 264 267 272 276 279 283 286 290 294
268 263 260 256 250 245 242 240 237 236 235 233 232 232 233 232 231 231 229 230 231 232 235 237 239 241 243 244 247 248 250 253 256 260 263 267 272 276 280 284 287 291 295
269 263 260 258 253 248 244 241 239 237 237 237 236 234 233 232 231 231 232 231 232 233 234 236 238 240 242 243 245 248 250 252 255 258 263 268 272 275 279 284 287 292 295
271 265 260 257 253 249 244 241 239 238 239 239 238 236 234 232 231 231 230 230 232 233 234 235 236 238 240 242 245 248 249 251 254 257 261 265 270 274 278 282 286 290 294
273 267 262 258 254 248 243 240 239 239 240 239 239 238 235 233 231 230 230 230 231 230 231 233 235 237 238 241 244 247 250 252 254 257 260 264 268 272 276 280 284 289 293
274 269 264 260 254 248 243 240 241 241 240 239 238 237 235 233 231 229 230 230 231 228 229 232 234 236 238 240 242 245 249 251 254 258 261 264 266 270 274 278 283 287 291
271 266 263 257 251 247 244 243 243 242 240 238 237 236 234 233 230 230 230 230 229 229 230 231 235 237 238 240 242 246 248 250 254 258 260 264 266 270 274 277 282 285 290
267 265 261 256 251 248 247 245 244 242 239 238 237 236 233 231 229 229 229 229 229 230 231 232 236 238 238 239 242 245 247 249 252 256 260 262 266 269 273 276 279 283 288
Height
5612 5616 5621 5626 5631 5638 5645 5652 5659 5668 5677 5686 5695 5704 5714 5722 5730 5737 5743 5750 5756 5761 5767 5772 5776 5781 5785 5788 5791 5794 5796 5798 5800 5801 5802 5802 5802 5802 5801 5800 5798 5796 5794
5601 5605 5610 5615 5621 5627 5634 5640 5647 5656 5664 5674 5684 5694 5703 5712 5719 5726 5733 5740 5746 5752 5758 5763 5768 5773 5777 5781 5784 5787 5789 5792 5793 5795 5795 5796 5796 5795 5795 5793 5792 5790 5787
5593 5597 5601 5607 5613 5618 5624 5630 5638 5645 5654 5663 5673 5683 5692 5701 5709 5716 5724 5731 5737 5743 5750 5755 5760 5765 5770 5774 5777 5780 5782 5785 5786 5788 5789 5789 5790 5789 5788 5787 5785 5783 5781
5587 5591 5595 5599 5605 5611 5615 5622 5629 5637 5645 5653 5663 5672 5682 5691 5700 5708 5715 5722 5729 5735 5741 5747 5752 5757 5762 5766 5769 5772 5775 5777 5779 5780 5782 5782 5783 5783 5782 5781 5779 5777 5774
5581 5585 5589 5593 5598 5603 5608 5614 5620 5628 5636 5644 5653 5663 5672 5682 5690 5698 5706 5712 5718 5725 5732 5738 5743 5749 5753 5758 5761 5765 5768 5770 5772 5773 5774 5775 5775 5775 5775 5774 5772 5770 5767
5576 5580 5583 5586 5591 5596 5601 5607 5613 5620 5628 5636 5645 5654 5663 5672 5680 5688 5696 5702 5709 5716 5723 5729 5735 5740 5745 5749 5753 5757 5760 5762 5764 5766 5767 5767 5768 5768 5767 5766 5765 5763 5760
5573 5575 5579 5581 5585 5589 5594 5599 5606 5612 5620 5628 5636 5646 5654 5662 5671 5679 5686 5693 5701 5708 5715 5720 5726 5731 5736 5741 5745 5748 5752 5754 5757 5758 5759 5760 5760 5760 5760 5759 5757 5755 5753
5568 5570 5573 5576 5579 5583 5587 5592 5599 5605 5612 5620 5628 5637 5645 5653 5662 5670 5677 5685 5692 5700 5706 5712 5718 5723 5728 5732 5736 5740 5744 5746 5749 5750 5751 5752 5752 5752 5752 5751 5749 5748 5745
5564 5566 5567 5570 5573 5576 5580 5586 5591 5598 5604 5612 5620 5628 5635 5644 5652 5660 5668 5676 5683 5690 5697 5703 5709 5714 5719 5724 5728 5732 5735 5738 5740 5742 5743 5744 5744 5744 5744 5743 5741 5740 5737
5559 5561 5562 5564 5567 5571 5575 5579 5584 5590 5597 5603 5611 5619 5627 5635 5643 5651 5659 5667 5675 5681 5688 5694 5700 5705 5710 5715 5720 5724 5727 5730 5732 5734 5735 5736 5737 5736 5736 5735 5733 5731 5729
5554 5555 5556 5559 5561 5564 5568 5572 5577 5583 5589 5595 5602 5610 5618 5626 5634 5643 5651 5659 5666 5673 5679 5685 5691 5697 5702 5706 5711 5715 5719 5721 5724 5726 5727 5728 5728 5728 5728 5726 5725 5723 5720
5549 5550 5551 5553 5555 5558 5562 5565 5570 5575 5581 5587 5594 5602 5609 5617 5626 5634 5642 5650 5657 5664 5670 5677 5682 5688 5693 5698 5703 5706 5710 5713 5715 5717 5719 5720 5720 5720 5719 5718 5716 5714 5712
5543 5544 5545 5547 5549 5552 5555 5558 5563 5568 5574 5579 5586 5593 5601 5609 5617 5625 5632 5640 5648 5655 5661 5668 5674 5679 5685 5690 5694 5698 5701 5704 5706 5709 5710 5711 5712 5712 5711 5710 5708 5706 5704
5537 5537 5539 5541 5543 5546 5548 5551 5556 5560 5566 5571 5577 5585 5592 5601 5608 5616 5623 5631 5638 5645 5652 5659 5665 5671 5676 5681 5685 5689 5692 5695 5698 5700 5702 5703 5703 5703 5703 5701 5700 5698 5695
5531 5531 5532 5534 5536 5539 5541 5545 5549 5553 5557 5563 5569 5576 5584 5592 5599 5607 5614 5622 5629 5637 5644 5650 5656 5662 5667 5672 5676 5680 5683 5686 5689 5691 5693 5694 5695 5695 5694 5693 5691 5690 5687
5524 5524 5525 5527 5529 5531 5534 5537 5541 5545 5549 5555 5561 5568 5575 5583 5591 5598 5606 5613 5620 5628 5634 5641 5647 5652 5658 5663 5667 5671 5674 5677 5680 5682 5684 5685 5686 5686 5685 5685 5683 5681 5679
5517 5517 5518 5519 5521 5523 5526 5529 5533 5537 5542 5547 5553 5560 5567 5574 5581 5588 5596 5604 5611 5619 5625 5632 5638 5644 5649 5654 5658 5662 5665 5668 5671 5673 5675 5676 5677 5677 5677 5676 5674 5672 5670
5509 5509 5510 5511 5513 5515 5518 5522 5526 5530 5535 5540 5546 5552 5559 5566 5573 5580 5587 5595 5602 5609 5615 5622 5628 5634 5640 5644 5649 5653 5656 5659 5662 5664 5666 5668 5669 5669 5669 5668 5666 5664 5662
5501 5501 5502 5503 5505 5507 5510 5514 5518 5523 5528 5533 5538 5544 5551 5557 5564 5571 5578 5585 5592 5599 5605 5612 5618 5624 5630 5635 5639 5643 5647 5650 5653 5655 5657 5659 5660 5660 5660 5659 5658 5656 5654
5492 5493 5494 5495 5497 5499 5502 5506 5510 5515 5520 5525 5531 5536 5542 5549 5555 5562 5568 5575 5582 5589 5596 5602 5608 5614 5620 5625 5630 5634 5637 5641 5644 5646 5649 5650 5651 5651 5651 5650 5649 5648 5645
5484 5484 5485 5486 5488 5491 5494 5497 5501 5506 5512 5517 5522 5528 5533 5540 5546 5553 5559 5566 5572 5579 5586 5592 5598 5604 5610 5616 5620 5624 5628 5631 5635 5637 5640 5641 5642 5643 5642 5642 5641 5639 5637
5474 5474 5476 5478 5480 5482 5485 5489 5493 5498 5503 5508 5514 5519 5525 5530 5536 5543 5550 5557 5563 5569 5576 5582 5588 5595 5600 5606 5611 5614 5618 5622 5625 5628 5631 5632 5633 5634 5634 5633 5632 5631 5628
5466 5466 5467 5468 5471 5473 5476 5481 5485 5489 5494 5499 5504 5510 5515 5521 5527 5534 5540 5547 5553 5559 5566 5572 5579 5585 5590 5595 5600 5605 5609 5612 5616 5619 5621 5623 5624 5624 5625 5625 5624 5622 5620
5457 5457 5458 5459 5462 5464 5467 5471 5476 5480 5484 5490 5495 5500 5505 5511 5517 5524 5530 5537 5544 5550 5556 5563 5569 5575 5580 5586 5591 5595 5599 5603 5606 5609 5612 5613 5614 5615 5616 5616 5615 5614 5612
5449 5449 5450 5452 5454 5456 5459 5463 5466 5471 5475 5480 5485 5490 5496 5501 5508 5515 5521 5528 5535 5541 5548 5554 5560 5566 5571 5577 5582 5585 5590 5594 5597 5600 5602 5604 5605 5606 5607 5607 5607 5605 5603
5442 5442 5443 5445 5447 5449 5451 5454 5457 5461 5466 5471 5476 5481 5487 5493 5499 5506 5513 5519 5526 5533 5539 5545 5551 5557 5562 5567 5572 5576 5580 5584 5587 5590 5593 5595 5597 5598 5599 5599 5598 5597 5595